Weather History for KNEW - September, 2013

Change the Weather History Date:

Wednesday, September 18, 2013

  Actual Average Record
Temperature  
Mean Temperature 83 °F 79 °F  
Max Temperature 88 °F 87 °F 94 °F (1954)
Min Temperature 77 °F 72 °F 58 °F (1961)
Degree Days  
Heating Degree Days 0 0  
Month to date heating degree days 0 0  
Since 1 July heating degree days 0 0  
Cooling Degree Days 18 14  
Month to date cooling degree days 328 290  
Year to date cooling degree days 2464 2536  
Growing Degree Days 35 (Base 50)    
Moisture  
Dew Point 75 °F    
Average Humidity 74    
Maximum Humidity 85    
Minimum Humidity 63    
Precipitation  
Precipitation 0.39 in 0.16 in 2.73 in (1957)
Month to date precipitation 3.81 3.28  
Year to date precipitation 54.12 47.49  
Snow  
Snow 0.00 in - - ()
Month to date snowfall 0.0  
Since 1 July snowfall 0.0  
Since 1 September snowfall 0.0  
Snow Depth 0.00 in    
Sea Level Pressure  
Sea Level Pressure 29.99 in    
Wind  
Wind Speed 7 mph (East)    
Max Wind Speed 30 mph    
Max Gust Speed 36 mph    
Visibility 10 miles    
Events      
T = Trace of Precipitation, MM = Missing Value Source: NWS Daily Summary

Daily Weather History Graph

Daily Weather History Graph

Search for Another Location

Airport or City:

Trip Planner

Search our weather history database for the weather conditions in past years. The results will help you decide how hot, cold, wet, or windy it might be!

Date:

Astronomy

Sep. 18, 2013 Rise Set
Actual Time 6:46 AM CDT 7:01 PM CDT
Civil Twilight 6:22 AM CDT 7:25 PM CDT
Nautical Twilight 5:54 AM CDT 7:53 PM CDT
Astronomical Twilight 5:26 AM CDT 8:21 PM CDT
Moon 6:25 PM CDT (9/18) 5:50 AM CDT (9/18)
Length of Visible Light 13h 02m
Length of Day
12h 14m
Waxing Gibbous, 99% of the Moon is Illuminated
Sep 18
Waxing Gibbous
Sep 19
Full
Sep 26
Last Quarter
Oct 4
New
Oct 11
First Quarter

Hourly Weather History & Observations

Time (CDT) Temp. Heat Index Dew Point Humidity Pressure Visibility Wind Dir Wind Speed Gust Speed Precip Events Conditions
12:53 AM 82.9 °F 90.2 °F 75.0 °F 77% 29.99 in 10.0 mi ESE 4.6 mph - N/A   Clear
1:53 AM 82.9 °F 90.8 °F 75.9 °F 79% 29.99 in 10.0 mi ESE 3.5 mph - N/A   Clear
2:53 AM 82.9 °F 90.8 °F 75.9 °F 79% 29.98 in 10.0 mi East 4.6 mph - N/A   Scattered Clouds
3:53 AM 82.9 °F 90.8 °F 75.9 °F 79% 29.98 in 10.0 mi ESE 6.9 mph - N/A   Partly Cloudy
4:53 AM 82.0 °F 89.4 °F 75.9 °F 82% 29.97 in 10.0 mi East 6.9 mph - N/A   Partly Cloudy
5:53 AM 82.9 °F 90.2 °F 75.0 °F 77% 29.98 in 10.0 mi East 8.1 mph - N/A   Clear
6:53 AM 81.0 °F 87.9 °F 77.0 °F 88% 29.99 in 9.0 mi ENE 15.0 mph - N/A   Scattered Clouds
7:53 AM 82.9 °F 90.8 °F 75.9 °F 79% 30.00 in 10.0 mi East 13.8 mph - N/A   Scattered Clouds
8:53 AM 84.9 °F 94.1 °F 75.9 °F 74% 30.01 in 10.0 mi East 12.7 mph - N/A   Partly Cloudy
9:53 AM 86.0 °F 96.0 °F 75.9 °F 72% 30.02 in 10.0 mi East 16.1 mph - N/A   Mostly Cloudy
10:53 AM 86.0 °F 95.1 °F 75.0 °F 70% 30.04 in 10.0 mi East 13.8 mph - N/A   Mostly Cloudy
11:53 AM 87.1 °F 97.3 °F 75.9 °F 69% 30.03 in 10.0 mi East 12.7 mph - N/A   Mostly Cloudy
12:53 PM 88.0 °F 97.5 °F 75.0 °F 65% 30.01 in 10.0 mi East 17.3 mph 23.0 mph N/A   Mostly Cloudy
1:53 PM 88.0 °F 94.7 °F 72.0 °F 59% 29.99 in 10.0 mi ESE 15.0 mph - N/A   Scattered Clouds
2:53 PM 89.1 °F 97.0 °F 73.0 °F 59% 29.99 in 10.0 mi East 15.0 mph 24.2 mph N/A   Scattered Clouds
3:53 PM 88.0 °F 95.6 °F 73.0 °F 61% 29.97 in 10.0 mi East 17.3 mph - N/A   Scattered Clouds
4:53 PM 86.0 °F 95.1 °F 75.0 °F 70% 29.97 in 10.0 mi East 18.4 mph 25.3 mph N/A   Scattered Clouds
5:53 PM 84.9 °F 93.3 °F 75.0 °F 72% 29.97 in 10.0 mi East 19.6 mph 25.3 mph N/A   Clear
6:30 PM 84.2 °F 90.9 °F 73.4 °F 70% 29.99 in 10.0 mi East 16.1 mph - N/A   Mostly Cloudy
6:42 PM 84.2 °F 90.9 °F 73.4 °F 70% 29.99 in 10.0 mi East 15.0 mph 23.0 mph N/A   Mostly Cloudy
6:53 PM 84.0 °F 91.2 °F 73.9 °F 72% 29.97 in 10.0 mi East 16.1 mph - N/A   Partly Cloudy
7:53 PM 84.0 °F 91.2 °F 73.9 °F 72% 29.97 in 10.0 mi East 13.8 mph - N/A   Clear
8:53 PM 84.0 °F 91.2 °F 73.9 °F 72% 29.99 in 10.0 mi East 16.1 mph - N/A   Partly Cloudy
9:53 PM 84.0 °F 91.2 °F 73.9 °F 72% 30.00 in 10.0 mi East 12.7 mph - N/A   Partly Cloudy
10:53 PM 84.0 °F 91.2 °F 73.9 °F 72% 30.00 in 10.0 mi East 15.0 mph - N/A   Scattered Clouds
11:53 PM 84.0 °F 91.2 °F 73.9 °F 72% 29.98 in 10.0 mi East 12.7 mph - N/A   Partly Cloudy